FENGYUN 1C DEB, 36990

Orbit data source: Space-Track

FENGYUN 1C DEB, 36990 is space debris in SSO originally from a launch on Mon, 10 May 1999 UTC launched from the Taiyaun Space Center, China (TSC). Fengyun 1C debris stems from the Chinese weather satellite Fengyun-1C, which was intentionally destroyed by a Chinese anti-satellite missile in 2007. This event dramatically increased the amount of space debris, with thousands of trackable fragments posing hazards to satellites and human spaceflight. The Fengyun 1C debris cloud has become a focal point in discussions about space sustainability and the need for international regulations to prevent the creation of new debris.

Loading next visibility...
Identifier
36990, 1999-025EBW
Orbit
SSO
Country
Flag of CNCN / PRC
Related business
Manufacturer
Unknown
Mission
Spacecraft
Bus & Motor
Unknown
Mass
Unknown
Launch date (UTC)
1999-05-10 (27 years ago)
Launch vehicle
Unknown
Launch site
Taiyaun Space Center, China (TSC)
Object type
Payload
Rocket body
Debris
Shape & HBR
Unknown shape, 0.1 m
Radar Cross Section
Small (<0.1 m²)

Expand to show TLE details & history
Last TLE update: 3 weeks ago

TLE from 3 weeks ago
0 FENGYUN 1C DEB
1 36990U 99025EBW 26140.44449534  .00000190  00000-0  23054-3 0  9999
2 36990  96.5875  41.8993 0288917 309.0665  48.5097 13.57127183850405
Epoch: 2026-05-20T10:40Z
TLE epoch observation values (Epoch: 2026-05-20T10:40:04.397Z)
Latitude
-0°
Longitude
3.77702°
Altitude
910.489 km
Speed
7.465 km/s
True Right ascension
02h 47m 35s
True Declination
0° 00' 00"
Sunlit
Object was in daylight at epoch
Visualization orbit readout
Latitude
Unknown
Longitude
Unknown
Altitude
Unknown
Speed
Unknown
Apparent Right ascension
Unknown
Apparent Declination
Unknown
Sunlit
N/A
Visualization observer readout
Local Sidereal Time
01:39:42
Azimuth
Unknown
Elevation
Unknown
Doppler factor
Unknown
Orbital elements
Apogee altitude
1,257.722 km
Perigee altitude
828.886 km
Semi-major axis
7,421.441 km
Eccentricity
0.02889
Inclination
96.5875°
RAAN
41.8993°
Arg. of periapsis
309.0665°
True anomaly
51.04957°
Mean anomaly
48.5097°
Eccentric anomaly
49.77357°
Mean motion
3.39477 °/min
Orbital period
106.05 mins
BSTAR
0.00023054
Loading maneuver chart data...
Computing Atmospheric mass density...
Loading historical data...
Loading historical data...
Loading historical data...
Loading historical data...
Loading historical data...
Loading historical data...
Loading historical data...

Documentation

Showing up to 5 results
|